TimeEDT,TemperatureF,Dew PointF,Humidity,Sea Level PressureIn,VisibilityMPH,Wind Direction,Wind SpeedMPH,Gust SpeedMPH,PrecipitationIn,Events,Conditions,WindDirDegrees,DateUTC
12:00 AM,80.6,75.2,84,29.90,6.2,ENE,2.3,-,N/A,,Mostly Cloudy,60,2012-10-18 04:00:00
1:00 AM,80.6,75.2,84,29.89,6.2,Calm,Calm,-,N/A,,Scattered Clouds,0,2012-10-18 05:00:00
2:00 AM,81,77,83,29.88,8,ENE,2.3,,,,Scattered Clouds,60,2012-10-18 06:00:00
2:00 AM,80.6,77.0,89,29.87,6.2,ENE,2.3,-,N/A,,Scattered Clouds,60,2012-10-18 06:00:00
3:00 AM,80.6,75.2,84,29.85,6.2,East,4.6,-,N/A,,Mostly Cloudy,90,2012-10-18 07:00:00
4:00 AM,78.8,73.4,83,29.84,6.2,East,2.3,-,N/A,,Scattered Clouds,100,2012-10-18 08:00:00
5:00 AM,79,76,89,29.85,8,Calm,Calm,,,,Scattered Clouds,,2012-10-18 09:00:00
5:00 AM,78.8,77.0,94,29.84,6.2,Calm,Calm,-,N/A,,Scattered Clouds,0,2012-10-18 09:00:00
6:00 AM,78.8,73.4,83,29.85,6.2,Calm,Calm,-,N/A,,Scattered Clouds,0,2012-10-18 10:00:00
7:00 AM,78.8,73.4,83,29.87,6.2,Calm,Calm,-,N/A,,Partly Cloudy,0,2012-10-18 11:00:00
8:00 AM,80,78,91,29.88,9,ESE,2.3,,,,Scattered Clouds,110,2012-10-18 12:00:00
8:00 AM,80.6,77.0,89,29.88,6.2,ESE,2.3,-,N/A,,Scattered Clouds,110,2012-10-18 12:00:00
9:00 AM,84.2,75.2,74,29.90,6.2,SSE,3.5,-,N/A,,Mostly Cloudy,150,2012-10-18 13:00:00
10:00 AM,84.2,75.2,74,29.90,6.2,South,5.8,-,N/A,,Mostly Cloudy,180,2012-10-18 14:00:00
11:00 AM,87,77,66,29.91,9,SSW,5.8,,,,Partly Cloudy,200,2012-10-18 15:00:00
11:00 AM,86.0,75.2,70,29.90,6.2,South,5.8,-,N/A,,Mostly Cloudy,180,2012-10-18 15:00:00
1:00 PM,87.8,75.2,66,29.88,6.2,SSW,5.8,-,N/A,,Mostly Cloudy,200,2012-10-18 17:00:00
2:00 PM,89.6,77.0,66,29.87,6.2,SSW,3.5,-,N/A,,Mostly Cloudy,200,2012-10-18 18:00:00
3:00 PM,84.2,73.4,70,29.88,6.2,South,3.5,-,N/A,Thunderstorm,Thunderstorm,180,2012-10-18 19:00:00
4:00 PM,84.2,77.0,79,29.87,6.2,SE,3.5,-,N/A,Thunderstorm,Thunderstorm,140,2012-10-18 20:00:00
5:00 PM,85,,,29.87,9,,2.3,,,,,,2012-10-18 21:00:00
5:00 PM,84.2,78.8,84,29.87,6.2,Variable,2.3,-,N/A,,Mostly Cloudy,0,2012-10-18 21:00:00
6:00 PM,82.4,73.4,74,29.88,6.2,Variable,2.3,-,N/A,,Mostly Cloudy,0,2012-10-18 22:00:00
7:00 PM,80.6,73.4,79,29.89,6.2,Variable,1.2,-,N/A,,Scattered Clouds,0,2012-10-18 23:00:00
8:00 PM,81,75,78,29.90,9,Calm,Calm,,,,Partly Cloudy,,2012-10-19 00:00:00
8:00 PM,80.6,75.2,84,29.90,6.2,Calm,Calm,-,N/A,,Partly Cloudy,0,2012-10-19 00:00:00
9:00 PM,80.6,75.2,84,29.90,6.2,Variable,1.2,-,N/A,,Partly Cloudy,0,2012-10-19 01:00:00
10:00 PM,80.6,75.2,84,29.91,6.2,South,4.6,-,N/A,,Partly Cloudy,170,2012-10-19 02:00:00
11:00 PM,80,75,81,29.92,9,Calm,Calm,,,,Scattered Clouds,,2012-10-19 03:00:00
11:00 PM,80.6,75.2,84,29.91,6.2,Calm,Calm,-,N/A,,Partly Cloudy,0,2012-10-19 03:00:00